STARLINK-33818, 63502

Orbit data source: Space-Track

STARLINK-33818, 63502 is a payload satellite owned by SpaceX/Seattle (US) in LEO that was launched on Mon, 07 Apr 2025 UTC via an FALCON 9 launch vehicle from the Air Force Western Test Range (AFWTR). Payload-class satellites include a variety of spacecraft equipped with specific instruments for various scientific and technological missions. These include communications satellites like Starlink; space stations such as the ISS; scientific satellites like the Hubble; Earth observation satellites from companies like Planet Labs, Umbra, and HawkEye 360; GPS; miniature CubeSats for education and research; and military/defense satellites.

Loading next visibility...
Identifier
63502, 2025-071K
Orbit
LEO
Last TLE update
10 hours ago
Origin
Manufacturer
SpaceX/Seattle
Mission
Operational Commercial Communications
Bus & Motor
STARLINK V2MO, Unknown motor
Mass
575 kg wet, ~530 kg dry
Launch date (UTC)
2025-04-07 (3 months ago)
Launch vehicle
FALCON 9
Launch site
Air Force Western Test Range (AFWTR)
Object type
Payload
Rocket body
Debris
Shape & HBR
Box + 1 Pan, 29 m
Radar Cross Section
41.120 m², Large (>1 m²)

Expand to show TLE details & history

TLE from 10 hours ago
0 STARLINK-33818
1 63502U 25071K   25182.83900742  .00018538  00000-0  47226-3 0  9991
2 63502  53.1588 225.8027 0001211  86.3145 273.7999 15.39622617 14357
Epoch: 2025-07-01T20:08Z
TLE epoch observation values (Epoch: 2025-07-01T20:08:10.241Z)
Latitude
0.00005°
Longitude
3.63136°
Altitude
448.073 km
Speed
7.645 km/s
True Right ascension
15h 03m 12s
True Declination
0° 00' 00"
Sunlit
Object was in full shadow at epoch
Visualization orbit readout
Latitude
38.68808°
Longitude
38.38253°
Altitude
449.828 km
Speed
7.648 km/s
Apparent Right ascension
17h 03m 24s
Apparent Declination
21° 48' 25"
Sunlit
Object is in full shadow
Visualization observer readout
Local Sidereal Time
17:23:53
Azimuth
195.038° SSW
Elevation
71.374°
Doppler factor
1
Orbital elements
Apogee altitude
448.309 km
Perigee altitude
446.655 km
Semi-major axis
6,825.619 km
Eccentricity
0.00012
Inclination
53.1588°
RAAN
225.8027°
Arg. of periapsis
86.3145°
True anomaly
Unknown
Mean anomaly
273.7999°
Eccentric anomaly
Unknown
Mean motion
3.84884 °/min
Orbital period
93.53 mins
BSTAR
0.00047226
Loading maneuver chart data...
Loading SW <> Apogee altitude chart data...
Loading historical data...
Loading historical data...
Loading historical data...
Loading historical data...
Loading historical data...
Loading historical data...
Loading historical data...

STARLINK-33818 Visibility forecast

Observer location: undefined°, undefined°

Span
Click to sort rows by Start time (UTC) header in descending order
Start Az.
Max El. time (UTC)
Max El. Az.
Max El.
End time (UTC)
End Az.
5 mins2025-07-02 12:13:17.085Z324.133° NNW2025-07-02 12:15:17.085Z53.957° ENE40.789°2025-07-02 12:18:17.085Z118.057° SE
5 mins2025-07-03 05:02:17.085Z203.123° SW2025-07-03 05:04:17.085Z123° SE38.182°2025-07-03 05:07:17.085Z59.563° ENE
|